CW5255 Weather Reports


Display with metric or nautical units.
time (UTC)temp
F
wind
direction
speed
MPH
gust
MPH
rain 1hr
in
rain 24hr
in
rain mn
in
humidity
%
barometer
mb
20181016051654 56 311 5.0 14.0 0.00 0.03 0.00 77 1021.6
20181016051153 56 259 3.0 13.0 0.00 0.03 0.00 77 1021.5
20181016050654 57 355 6.0 14.0 0.00 0.03 0.00 78 1021.6
20181016050153 57 304 1.0 14.0 0.00 0.03 0.00 78 1021.5
20181016045655 57 294 5.0 10.0 0.00 0.03 0.00 78 1021.6
20181016045153 57 355 4.0 12.0 0.00 0.03 0.00 78 1021.6
20181016044652 57 302 2.0 12.0 0.00 0.03 0.00 78 1021.6
20181016044152 58 291 9.0 13.0 0.00 0.03 0.00 78 1021.1
20181016043652 58 296 2.0 13.0 0.00 0.03 0.00 78 1021.3
20181016043152 58 30 2.0 11.0 0.00 0.03 0.00 79 1020.9
20181016042652 58 360 3.0 9.0 0.00 0.03 0.00 79 1021.0
20181016042152 59 108 2.0 9.0 0.00 0.03 0.00 79 1021.2
20181016041652 59 187 0.0 10.0 0.00 0.03 0.00 79 1021.0
20181016041156 59 285 0.0 10.0 0.00 0.03 0.00 79 1021.0
20181016040651 59 53 2.0 9.0 0.00 0.03 0.00 78 1020.9
20181016040153 59 76 2.0 6.0 0.00 0.03 0.00 79 1020.7
20181016035655 59 235 3.0 6.0 0.00 0.03 0.03 79 1020.4
20181016035154 59 48 3.0 10.0 0.00 0.03 0.03 80 1020.3
20181016034651 59 339 1.0 11.0 0.00 0.03 0.03 79 1020.4
20181016034152 59 86 1.0 11.0 0.00 0.03 0.03 79 1020.2
20181016033654 60 66 1.0 12.0 0.00 0.03 0.03 79 1020.0
20181016033151 60 136 3.0 12.0 0.00 0.03 0.03 79 1019.9
20181016032651 60 5 1.0 9.0 0.00 0.03 0.03 78 1020.0
20181016032152 60 13 0.0 15.0 0.00 0.03 0.03 78 1020.0
20181016031651 60 315 3.0 15.0 0.00 0.03 0.03 78 1020.1
20181016031152 60 26 2.0 14.0 0.00 0.03 0.03 78 1020.2
20181016030650 60 340 5.0 9.0 0.00 0.03 0.03 79 1020.0
20181016030150 60 246 0.0 18.0 0.00 0.03 0.03 80 1019.7
20181016025650 60 330 5.0 18.0 0.00 0.03 0.03 80 1019.4
20181016025149 60 48 10.0 11.0 0.00 0.03 0.03 81 1019.4
20181016024649 61 121 1.0 14.0 0.00 0.03 0.03 81 1019.4
20181016024149 61 300 11.0 14.0 0.00 0.03 0.03 82 1019.4
20181016023649 61 50 9.0 11.0 0.00 0.03 0.03 83 1019.3
20181016023149 61 346 3.0 8.0 0.00 0.03 0.03 84 1019.5
20181016022649 62 59 3.0 5.0 0.00 0.03 0.03 85 1019.3
20181016022149 62 76 4.0 4.0 0.00 0.03 0.03 84 1019.1
20181016021649 62 115 2.0 4.0 0.00 0.03 0.03 85 1019.0
20181016021148 62 61 2.0 4.0 0.00 0.03 0.03 84 1018.8
20181016020648 62 138 3.0 8.0 0.00 0.03 0.03 84 1018.8
20181016020148 63 287 2.0 9.0 0.00 0.03 0.03 83 1018.8
20181016015648 63 211 4.0 9.0 0.00 0.03 0.03 83 1018.5
20181016015147 63 288 4.0 12.0 0.00 0.03 0.03 83 1018.6
20181016014647 63 63 1.0 12.0 0.00 0.03 0.03 82 1018.1
20181016014148 63 37 2.0 10.0 0.00 0.03 0.03 82 1018.2
20181016013647 63 266 2.0 7.0 0.00 0.03 0.03 84 1018.3
20181016013147 64 200 1.0 6.0 0.00 0.03 0.03 85 1018.0
20181016012647 64 210 1.0 6.0 0.00 0.03 0.03 85 1017.7
20181016012147 64 202 2.0 4.0 0.00 0.03 0.03 85 1017.9
20181016011646 64 164 1.0 10.0 0.00 0.03 0.03 84 1017.7
20181016011146 64 276 3.0 10.0 0.00 0.03 0.03 84 1017.8
20181016010646 65 269 6.0 10.0 0.00 0.03 0.03 84 1017.8
20181016010146 65 275 4.0 8.0 0.00 0.03 0.03 84 1017.3
20181016005646 65 12 3.0 10.0 0.00 0.03 0.03 84 1017.3
20181016005146 66 50 4.0 14.0 0.00 0.03 0.03 84 1017.5
20181016004646 66 344 4.0 14.0 0.00 0.03 0.03 85 1017.4
20181016004145 66 53 2.0 5.0 0.00 0.03 0.03 86 1017.3
20181016003645 66 234 2.0 6.0 0.00 0.03 0.03 86 1016.8
20181016003145 66 254 0.0 6.0 0.00 0.03 0.03 86 1016.7
20181016002645 66 240 3.0 6.0 0.00 0.03 0.03 86 1016.8
20181016002145 67 247 2.0 8.0 0.00 0.03 0.03 86 1016.8
20181016001645 67 229 1.0 8.0 0.00 0.03 0.03 85 1016.7
20181016001144 67 254 2.0 6.0 0.00 0.03 0.03 85 1016.4
20181016000644 67 254 4.0 7.0 0.00 0.03 0.03 86 1016.5
20181016000144 67 209 5.0 7.0 0.00 0.03 0.03 86 1016.3
20181015235644 67 244 3.0 8.0 0.00 0.03 0.03 85 1016.4
20181015235144 67 230 1.0 8.0 0.00 0.03 0.03 85 1016.5
20181015234644 67 240 4.0 8.0 0.00 0.03 0.03 86 1016.5
20181015234144 67 298 5.0 8.0 0.00 0.03 0.03 86 1016.4
20181015233644 66 198 7.0 7.0 0.00 0.03 0.03 87 1016.3
20181015233143 66 207 2.0 7.0 0.00 0.03 0.03 87 1016.3
20181015232643 67 209 4.0 7.0 0.00 0.03 0.03 87 1016.3
20181015232143 66 248 3.0 6.0 0.00 0.03 0.03 87 1016.2
20181015231643 66 202 2.0 7.0 0.00 0.03 0.03 88 1016.3
20181015231143 66 254 5.0 7.0 0.00 0.03 0.03 88 1016.2
20181015230642 66 229 1.0 7.0 0.00 0.03 0.03 88 1016.2
20181015230143 66 225 4.0 8.0 0.00 0.03 0.03 89 1016.2
20181015225642 66 244 5.0 8.0 0.00 0.03 0.03 89 1016.0
20181015225142 66 268 3.0 9.0 0.00 0.03 0.03 90 1015.6
20181015224642 66 223 1.0 9.0 0.00 0.03 0.03 90 1015.6
20181015224142 65 218 4.0 6.0 0.00 0.03 0.03 91 1015.7
20181015223642 65 224 4.0 5.0 0.00 0.03 0.03 92 1015.8
20181015223141 66 204 3.0 4.0 0.00 0.03 0.03 91 1015.9
20181015222641 66 215 2.0 4.0 0.00 0.03 0.03 90 1015.8
20181015222141 66 215 0.0 4.0 0.00 0.03 0.03 90 1015.7
20181015221641 66 231 2.0 4.0 0.00 0.03 0.03 90 1015.9
20181015221141 66 201 2.0 4.0 0.00 0.03 0.03 90 1016.0
20181015220641 67 225 2.0 4.0 0.00 0.03 0.03 90 1015.9
20181015220141 67 226 0.0 4.0 0.00 0.03 0.03 90 1015.9
20181015215640 67 219 1.0 4.0 0.00 0.03 0.03 89 1016.0
20181015215151 67 216 1.0 4.0 0.00 0.03 0.03 89 1016.1
20181015214719 67 245 2.0 4.0 0.00 0.03 0.03 89 1016.0
20181015214140 67 227 2.0 4.0 0.00 0.03 0.03 89 1016.0
20181015211639 67 227 2.0 7.0 0.00 0.03 0.03 88 1015.6
20181015211139 68 230 2.0 7.0 0.00 0.03 0.03 88 1015.8
20181015210639 68 221 1.0 7.0 0.00 0.03 0.03 88 1015.8
20181015210139 68 215 3.0 7.0 0.00 0.03 0.03 88 1015.8
20181015205638 67 244 1.0 8.0 0.00 0.03 0.03 88 1015.9
20181015205138 67 226 6.0 8.0 0.00 0.03 0.03 89 1016.0
20181015204639 66 228 3.0 6.0 0.00 0.03 0.03 90 1016.3
20181015204138 66 263 2.0 6.0 0.00 0.03 0.03 89 1016.1
20181015203638 66 221 3.0 6.0 0.00 0.03 0.03 89 1016.2
20181015203138 66 211 2.0 4.0 0.00 0.03 0.03 89 1016.4
20181015202638 66 236 1.0 7.0 0.00 0.03 0.03 89 1016.4
20181015202137 66 261 3.0 7.0 0.00 0.03 0.03 89 1016.5
20181015201637 65 251 2.0 9.0 0.00 0.03 0.03 90 1016.4
20181015201137 65 176 1.0 9.0 0.00 0.03 0.03 90 1016.4
20181015200637 65 242 2.0 8.0 0.00 0.03 0.03 90 1016.7
20181015200137 65 235 2.0 7.0 0.00 0.03 0.03 90 1016.4
20181015195636 65 200 3.0 7.0 0.00 0.03 0.03 90 1016.4
20181015195137 65 190 3.0 7.0 0.00 0.03 0.03 91 1016.4
20181015194636 64 232 2.0 8.0 0.00 0.03 0.03 91 1016.4
20181015194136 64 206 2.0 8.0 0.00 0.03 0.03 91 1016.5
20181015193636 64 217 3.0 6.0 0.00 0.03 0.03 91 1016.3
20181015193136 64 260 3.0 8.0 0.00 0.03 0.03 91 1016.6
20181015192636 64 266 2.0 8.0 0.00 0.03 0.03 92 1016.7
20181015192136 64 198 6.0 7.0 0.00 0.03 0.03 92 1016.6
20181015191636 64 215 3.0 5.0 0.00 0.03 0.03 92 1016.4
20181015191136 64 219 1.0 5.0 0.00 0.03 0.03 92 1016.6
20181015190635 64 194 2.0 5.0 0.00 0.03 0.03 92 1016.5
20181015190135 64 217 2.0 6.0 0.00 0.03 0.03 92 1016.7
20181015185635 64 194 1.0 6.0 0.00 0.03 0.03 92 1016.8
20181015185135 64 213 4.0 6.0 0.00 0.03 0.03 92 1016.8
20181015184635 64 182 2.0 9.0 0.00 0.03 0.03 92 1016.9
20181015184135 64 263 6.0 9.0 0.00 0.03 0.03 92 1016.9
20181015183635 64 204 5.0 6.0 0.00 0.03 0.03 92 1017.0
20181015183134 64 259 4.0 6.0 0.00 0.03 0.03 92 1017.1
20181015182634 64 245 2.0 11.0 0.00 0.03 0.03 92 1017.4
20181015182134 64 215 0.0 11.0 0.00 0.03 0.03 91 1017.6
20181015181634 64 227 3.0 9.0 0.00 0.03 0.03 90 1017.6
20181015181134 64 217 5.0 9.0 0.00 0.03 0.03 90 1017.5
20181015180633 64 237 6.0 8.0 0.00 0.03 0.03 90 1017.5
20181015180134 64 218 6.0 8.0 0.00 0.03 0.03 90 1017.5
20181015175633 64 199 3.0 8.0 0.00 0.03 0.03 90 1017.4
20181015175133 63 251 4.0 10.0 0.00 0.03 0.03 91 1017.7
20181015174633 63 239 6.0 10.0 0.00 0.03 0.03 91 1017.7
20181015174133 63 221 2.0 10.0 0.00 0.03 0.03 91 1018.1
20181015173632 63 233 6.0 13.0 0.00 0.03 0.03 90 1018.2
20181015173133 63 217 2.0 13.0 0.00 0.03 0.03 90 1018.2
20181015172702 63 211 2.0 7.0 0.00 0.03 0.03 89 1018.2
20181015172202 63 207 3.0 11.0 0.00 0.03 0.03 89 1018.3
20181015171632 63 236 2.0 11.0 0.00 0.03 0.03 89 1018.4
20181015171132 63 208 2.0 9.0 0.00 0.03 0.03 89 1018.5
20181015170632 63 219 3.0 10.0 0.00 0.03 0.03 89 1018.5
20181015170201 63 233 4.0 10.0 0.00 0.03 0.03 89 1018.6
20181015165701 63 243 6.0 11.0 0.00 0.03 0.03 89 1018.5
20181015165201 63 219 4.0 11.0 0.00 0.03 0.03 90 1018.6
20181015164701 62 234 6.0 9.0 0.00 0.03 0.03 90 1018.8
20181015164201 62 232 5.0 8.0 0.00 0.04 0.03 90 1018.7
20181015163700 62 222 3.0 9.0 0.00 0.04 0.03 90 1018.6
20181015163130 62 232 5.0 9.0 0.00 0.04 0.03 90 1018.6
20181015162631 62 195 5.0 9.0 0.00 0.04 0.03 90 1018.9
20181015162200 62 224 3.0 12.0 0.00 0.04 0.03 90 1018.9
20181015161630 62 227 3.0 12.0 0.00 0.04 0.03 90 1019.1
20181015161200 62 184 2.0 10.0 0.00 0.04 0.03 90 1019.0
20181015160630 62 210 4.0 10.0 0.00 0.04 0.03 90 1019.1
20181015160159 62 209 4.0 12.0 0.00 0.04 0.03 90 1019.1
20181015155629 62 254 9.0 12.0 0.00 0.04 0.03 90 1019.1
20181015155129 62 221 1.0 10.0 0.00 0.04 0.03 91 1019.0
20181015154629 61 241 2.0 10.0 0.00 0.04 0.03 91 1018.8
20181015154129 61 274 8.0 8.0 0.00 0.04 0.03 90 1018.9
20181015153659 61 266 3.0 10.0 0.00 0.04 0.03 90 1018.7
20181015153159 61 234 3.0 12.0 0.00 0.04 0.03 90 1018.9
20181015152629 61 215 2.0 15.0 0.00 0.04 0.03 90 1018.7
20181015152158 61 228 6.0 15.0 0.00 0.04 0.03 90 1018.8
20181015151659 61 202 7.0 14.0 0.00 0.04 0.03 90 1019.0
20181015151158 61 217 7.0 14.0 0.00 0.04 0.03 90 1019.1
20181015150658 61 244 5.0 11.0 0.00 0.04 0.03 91 1019.0
20181015150158 61 254 8.0 11.0 0.00 0.04 0.03 90 1019.0
20181015145658 60 190 2.0 12.0 0.00 0.04 0.03 91 1018.9
20181015145157 60 254 5.0 12.0 0.00 0.04 0.03 91 1018.9
20181015144657 60 205 8.0 10.0 0.00 0.04 0.03 91 1018.8
20181015144127 60 204 6.0 12.0 0.00 0.04 0.03 91 1018.9
20181015143658 60 231 8.0 12.0 0.00 0.04 0.03 91 1018.7
20181015143157 60 243 5.0 13.0 0.00 0.04 0.03 91 1018.9
20181015142657 60 205 5.0 15.0 0.00 0.04 0.03 91 1018.9
20181015142157 60 229 9.0 15.0 0.00 0.04 0.03 91 1019.2
20181015141626 60 222 6.0 11.0 0.00 0.04 0.03 91 1019.1
20181015141157 59 211 2.0 11.0 0.00 0.04 0.03 92 1019.3
20181015140656 59 209 5.0 11.0 0.00 0.04 0.03 92 1019.3
20181015140156 59 240 10.0 11.0 0.00 0.04 0.03 92 1019.0
20181015135656 59 250 7.0 11.0 0.00 0.04 0.03 92 1019.3
20181015135156 59 210 1.0 12.0 0.00 0.04 0.03 92 1019.5
20181015134656 59 240 8.0 15.0 0.00 0.04 0.03 93 1019.4
20181015134155 58 236 6.0 15.0 0.00 0.04 0.03 93 1019.4
20181015133655 58 200 5.0 13.0 0.00 0.04 0.03 93 1019.2
20181015133155 58 275 3.0 15.0 0.00 0.04 0.03 93 1019.3
20181015132655 58 212 2.0 15.0 0.00 0.04 0.03 93 1019.3
20181015132155 58 223 9.0 10.0 0.01 0.04 0.03 93 1019.2
20181015131655 58 217 2.0 11.0 0.01 0.04 0.03 93 1019.3
20181015131155 58 244 4.0 11.0 0.01 0.04 0.03 93 1019.3
20181015130655 58 227 4.0 11.0 0.01 0.04 0.03 93 1019.5
20181015130154 58 209 8.0 11.0 0.01 0.04 0.03 94 1019.6
20181015125654 57 232 1.0 10.0 0.01 0.04 0.03 94 1019.5
20181015125154 57 219 4.0 15.0 0.01 0.04 0.03 94 1019.6
20181015124654 57 240 6.0 15.0 0.01 0.04 0.03 94 1019.5
20181015124154 57 255 11.0 11.0 0.01 0.04 0.03 94 1019.7
20181015123653 57 213 5.0 10.0 0.01 0.04 0.03 94 1019.6
20181015123153 56 225 3.0 8.0 0.01 0.04 0.03 95 1019.6
20181015122653 56 197 4.0 8.0 0.01 0.04 0.03 95 1019.5
20181015122153 56 210 1.0 7.0 0.00 0.03 0.02 95 1019.6
20181015121653 56 223 3.0 6.0 0.00 0.03 0.02 95 1019.6
20181015121153 56 202 2.0 8.0 0.00 0.03 0.02 95 1019.4
20181015120652 56 213 3.0 8.0 0.00 0.03 0.02 95 1019.6
20181015120154 56 221 3.0 7.0 0.00 0.03 0.02 95 1019.6
20181015115653 56 254 4.0 9.0 0.00 0.03 0.02 95 1019.6
20181015115152 56 247 4.0 9.0 0.00 0.03 0.02 95 1019.5
20181015114652 56 252 2.0 9.0 0.01 0.03 0.02 95 1019.5
20181015114152 56 190 3.0 10.0 0.01 0.03 0.02 95 1019.5
20181015113652 55 218 5.0 10.0 0.01 0.03 0.02 95 1019.4
20181015113152 55 257 4.0 9.0 0.01 0.03 0.02 95 1019.4
20181015112652 55 215 2.0 9.0 0.01 0.03 0.02 94 1019.3
20181015112151 55 227 2.0 10.0 0.01 0.03 0.02 94 1019.4
20181015111651 55 250 4.0 10.0 0.01 0.03 0.02 94 1019.5
20181015111151 55 271 8.0 10.0 0.01 0.03 0.02 94 1019.5
20181015110651 55 217 5.0 7.0 0.01 0.03 0.02 94 1019.5
20181015110554 55 225 8.0 11.0 0.01 0.02 0.01 93 1019.5